Location: Newark
(51.2625°N, 13.3939°E)
Time: 08:57:35
(UTC+00:00)

deb Explorer IX - Pass Details

Date: 25 November 2019
Orbit: 546 x 1104 km, 38.8° (Epoch: 12 December)

Event Time Altitude Azimuth Distance (km) Brightness Sun altitude
Rises 23:37:51 0° 248° (WSW) 3,869 - -58.4°
Reaches altitude 10° 23:41:05 10° 238° (WSW) 2,863 - -58.2°
Maximum altitude 23:46:45 27° 183° (S) 1,774 - -57.8°
Drops below altitude 10° 23:51:55 10° 128° (SE) 2,581 - -57.5°
Sets 23:54:41 0° 116° (ESE) 3,426 - -57.3°
